Skip Page Navigation
NASA JPL Caltech
NASA Logo - Jet Propulsion Laboratory + View the NASA Portal
+ Center for Near-Earth Object Studies
JPL Home Earth Solar System Stars & Galaxies Technology
JPL Solar System Dynamics
BODIES ORBITS EPHEMERIDES TOOLS PHYSICAL DATA DISCOVERY FAQ SITE MAP
IMPORTANT: The SSD Announcement email list is now available. Major changes are coming in the near future, including possible hostname and/or URL changes. To be notified of such changes, subscribe to this email list.

Please visit this page for more details.


JPL Small-Body Database Browser
Search: [ help ]  
193082 (2000 GS37)
Classification: Main-belt Asteroid          SPK-ID: 2193082
Ephemeris | Orbit Diagram | Orbital Elements | Mission Design | Physical Parameters | Discovery Circumstances ]

[ show orbit diagram ]
Orbital Elements at Epoch 2458600.5 (2019-Apr-27.0) TDB
Reference: JPL 13 (heliocentric ecliptic J2000)
 Element Value Uncertainty (1-sigma)   Units 
e .1755790963976019 4.0555e-08  
a 2.388054168220098 1.4752e-08 au
q 1.968761775215486 9.4216e-08 au
i .6454751043298732 4.7266e-06 deg
node 226.6598208118869 0.00039719 deg
peri 54.23272306112516 0.00039758 deg
M 356.6263386507002 1.388e-05 deg
tp 2458613.131754375792
(2019-May-09.63175438)
5.1944e-05 TDB
period 1347.921769394193
3.69
1.249e-05
3.42e-08
d
yr
n .2670778142872472 2.4748e-09 deg/d
Q 2.80734656122471 1.7342e-08 au
  Orbit Determination Parameters
   # obs. used (total)      320  
   data-arc span      8024 days (21.97 yr)  
   first obs. used      1997-09-04  
   last obs. used      2019-08-24  
   planetary ephem.      DE431  
   SB-pert. ephem.      SB431-N16  
   condition code      0  
   norm. resid. RMS      .57784  
   source      ORB  
   producer      Otto Matic  
   solution date      2019-Sep-24 03:55:56  

Additional Information
 Earth MOID = .951806 au 
 Jupiter MOID = 2.32624 au 
 T_jup = 3.513 
[ show covariance matrix ]

Ephemeris | Orbit Diagram | Orbital Elements | Mission Design | Physical Parameters | Discovery Circumstances ]

Physical Parameter Table
Parameter Symbol Value Units Sigma Reference Notes
absolute magnitude H 17.0   n/a MPO440064  

193082 (2000 GS37)          Discovered 2000-Apr-05 by LINEAR at Socorro
Reference: 20081113/Numbers.arcLast Updated: 2008-11-17

Alternate Designations
 2000 GS37 = 2005 WH68 
Ephemeris | Orbit Diagram | Orbital Elements | Mission Design | Physical Parameters | Discovery Circumstances ]
ABOUT SSD CREDITS/AWARDS PRIVACY/COPYRIGHT GLOSSARY LINKS
FirstGov 2019-Oct-13 21:42 UT
(server date/time)  
NASA Home Page
Site Manager:   Ryan S. Park
Webmaster  Alan B. Chamberlin